Location: Lane
(33.5226°N, 79.8788°W)
Time: 19:07:41
(UTC+00:00)

Explorer 11/Cluster Stage 4 - Pass Details

Date: 06 October 2022
Orbit: 466 x 1247 km, 28.8° (Epoch: 01 December)

Event Time Altitude Azimuth Distance (km) Brightness Sun altitude
Rises 18:27:21 0° 269° (W) 4,169 10.6 46.8°
Reaches altitude 10° 18:30:25 10° 266° (W) 3,167 10.2 46.5°
Maximum altitude 18:38:09 55° 191° (S) 1,323 9.6 45.6°
Drops below altitude 10° 18:44:49 10° 115° (ESE) 2,737 9.4 44.8°
Sets 18:47:18 0° 111° (ESE) 3,570 9.8 44.5°
